Location: Banff
(51.1667°N, 115.5667°W)
Time: 10:45:35
(UTC+00:00)

A-11 Canister half - Pass Details

Date: 28 November 2020
Orbit: 1524 x 1684 km, 47.3° (Epoch: 20 January)

Event Time Altitude Azimuth Distance (km) Brightness Sun altitude
Rises 13:01:12 0° 210° (SSW) 4,927 11.4 -21.0°
Reaches altitude 10° 13:04:42 10° 203° (SSW) 3,940 11.0 -20.5°
Maximum altitude 13:13:32 36° 141° (SE) 2,432 10.4 -19.1°
Drops below altitude 10° 13:22:14 10° 80° (E) 3,888 12.2 -17.8°
Sets 13:25:39 0° 73° (ENE) 4,856 12.7 -17.3°
